Fort Polk, LA

4:27 PM CST on February 20, 2018 (GMT -0600)
Fort Polk

Weather History for KAQV - June, 2013

Change the Weather History Date:

Wednesday, June 19, 2013

  Actual Average (KPOE) Record (KPOE)
Temperature  
Mean Temperature 76 °F -  
Max Temperature 84 °F 86 °F 99 °F (2011)
Min Temperature 69 °F 69 °F 64 °F (2005)
Cooling Degree Days 12    
Growing Degree Days 26 (Base 50)    
Moisture  
Dew Point 71 °F    
Average Humidity 89    
Maximum Humidity 100    
Minimum Humidity 66    
Precipitation  
Precipitation 0.02 in - - ()
Sea Level Pressure  
Sea Level Pressure 29.98 in    
Wind  
Wind Speed 1 mph (NNE)    
Max Wind Speed 6 mph    
Max Gust Speed -    
Visibility 6 miles    
Events Fog , Rain , Thunderstorm    
Averages and records for this station are not official NWS values.
T = Trace of Precipitation, MM = Missing Value Source: NWS Daily Summary

Daily Weather History Graph

Daily Weather History Graph

Search for Another Location

Airport or City:

Trip Planner

Search our weather history database for the weather conditions in past years. The results will help you decide how hot, cold, wet, or windy it might be!

Date:

Astronomy

Jun. 19, 2013 Rise Set
Actual Time 6:08 AM CDT 8:20 PM CDT
Civil Twilight 5:40 AM CDT 8:48 PM CDT
Nautical Twilight 5:06 AM CDT 9:22 PM CDT
Astronomical Twilight 4:29 AM CDT 9:59 PM CDT
Moon 4:23 PM CDT (6/19) 2:41 AM CDT (6/19)
Length of Visible Light 15h 07m
Length of Day
14h 11m
Waxing Gibbous, 80% of the Moon is Illuminated
Jun 19
Waxing Gibbous
Jun 23
Full
Jun 29
Last Quarter
Jul 8
New
Jul 15
First Quarter

Hourly Weather History & Observations

Time (CDT) Temp. Heat Index Dew Point Humidity Pressure Visibility Wind Dir Wind Speed Gust Speed Precip Events Conditions
12:06 AM 71.6 °F - 69.8 °F 94% 29.96 in 10.0 mi Calm Calm - N/A   Mostly Cloudy
12:56 AM 71.1 °F - 70.0 °F 96% 29.96 in 3.0 mi Calm Calm - N/A   Overcast
1:01 AM 69.8 °F - 69.8 °F 100% 29.96 in 1.8 mi Calm Calm - N/A   Overcast
1:17 AM 71.6 °F - 69.8 °F 94% 29.97 in 3.0 mi Calm Calm - N/A   Overcast
1:25 AM 69.8 °F - 69.8 °F 100% 29.97 in 1.8 mi Calm Calm - N/A   Overcast
1:36 AM 69.8 °F - 69.8 °F 100% 29.97 in 0.8 mi Calm Calm - N/A   Mist
1:45 AM 69.8 °F - 69.8 °F 100% 29.97 in 1.2 mi Calm Calm - N/A   Overcast
1:56 AM 70.0 °F - 69.1 °F 97% 29.96 in 0.8 mi Calm Calm - N/A   Mist
2:34 AM 69.8 °F - 69.8 °F 100% 29.96 in 1.2 mi Calm Calm - N/A   Overcast
2:56 AM 70.0 °F - 69.1 °F 97% 29.95 in 0.5 mi Calm Calm - N/A Fog Fog
3:56 AM 70.0 °F - 69.1 °F 97% 29.95 in 0.5 mi Calm Calm - N/A Fog Fog
4:56 AM 69.1 °F - 69.1 °F 100% 29.95 in 0.5 mi Calm Calm - N/A Fog Fog
5:47 AM 69.8 °F - 68.0 °F 94% 29.97 in 1.2 mi North 3.5 mph - N/A   Overcast
5:56 AM 69.1 °F - 68.0 °F 96% 29.96 in 0.5 mi Calm Calm - N/A Fog Fog
6:08 AM 69.8 °F - 68.0 °F 94% 29.98 in 1.0 mi Calm Calm - N/A   Overcast
6:56 AM 70.0 °F - 69.1 °F 97% 29.99 in 0.8 mi Calm Calm - N/A   Overcast
7:51 AM 71.6 °F - 69.8 °F 94% 30.01 in 1.5 mi Calm Calm - N/A   Overcast
7:56 AM 70.0 °F - 70.0 °F 100% 30.01 in 2.0 mi Calm Calm - N/A   Overcast
8:05 AM 71.6 °F - 69.8 °F 94% 30.01 in 8.0 mi Calm Calm - N/A   Overcast
8:56 AM 73.0 °F - 71.1 °F 93% 30.01 in 10.0 mi NNE 3.5 mph - N/A   Overcast
9:00 AM 73.4 °F - 71.6 °F 94% 30.02 in 10.0 mi NE 3.5 mph - N/A   Overcast
9:10 AM 73.4 °F - 71.6 °F 94% 30.02 in 10.0 mi North 3.5 mph - N/A   Overcast
9:56 AM 73.9 °F - 71.1 °F 91% 30.01 in 10.0 mi Calm Calm - N/A   Overcast
10:05 AM 75.2 °F - 71.6 °F 89% 30.02 in 10.0 mi Calm Calm - N/A   Overcast
10:56 AM 81.0 °F 85.2 °F 72.0 °F 74% 30.02 in 10.0 mi Variable 4.6 mph - N/A   Mostly Cloudy
11:56 AM 82.0 °F 87.4 °F 73.0 °F 74% 30.01 in 10.0 mi NNE 5.8 mph - 0.00 in   Mostly Cloudy
12:56 PM 78.1 °F - 75.0 °F 90% 30.01 in 9.0 mi Calm Calm - 0.02 in Rain Light Rain
1:56 PM 84.9 °F 91.4 °F 73.0 °F 67% 29.99 in 10.0 mi North 4.6 mph - 0.00 in   Partly Cloudy
2:48 PM 84.2 °F 89.6 °F 71.6 °F 66% 29.99 in 10.0 mi NNE 3.5 mph - N/A   Overcast
2:56 PM 84.0 °F 89.6 °F 72.0 °F 67% 29.98 in 10.0 mi NNE 3.5 mph - N/A   Overcast
3:56 PM 78.1 °F - 72.0 °F 81% 29.99 in 10.0 mi Variable 3.5 mph - 0.00 in Rain , Thunderstorm Light Thunderstorms and Rain
4:25 PM 78.8 °F - 71.6 °F 78% 29.99 in 10.0 mi Calm Calm - 0.00 in   Mostly Cloudy
4:32 PM 78.8 °F - 71.6 °F 78% 29.99 in 10.0 mi Variable 3.5 mph - 0.00 in Thunderstorm Thunderstorm
4:47 PM 80.6 °F 84.6 °F 71.6 °F 74% 29.98 in 10.0 mi Calm Calm - 0.00 in   Scattered Clouds
4:56 PM 82.0 °F 87.4 °F 73.0 °F 74% 29.98 in 10.0 mi Variable 3.5 mph - 0.00 in Rain Light Rain
5:56 PM 80.1 °F 84.2 °F 73.0 °F 79% 29.97 in 10.0 mi Variable 3.5 mph - 0.00 in   Partly Cloudy
6:56 PM 80.1 °F 84.2 °F 73.0 °F 79% 29.96 in 10.0 mi Variable 3.5 mph - N/A   Clear
7:56 PM 78.1 °F - 73.0 °F 84% 29.97 in 10.0 mi Calm Calm - N/A   Clear
8:56 PM 75.0 °F - 73.0 °F 94% 29.99 in 10.0 mi Calm Calm - N/A   Clear
9:56 PM 75.0 °F - 73.0 °F 94% 29.99 in 10.0 mi Calm Calm - N/A   Clear
10:56 PM 73.0 °F - 72.0 °F 96% 30.01 in 9.0 mi Calm Calm - N/A   Clear
11:56 PM 72.0 °F - 71.1 °F 97% 30.01 in 8.0 mi Calm Calm - N/A   Clear